Location: Tamazert
(32.6352°N, 5.2072°W)
Time: 17:01:53
(UTC+00:00)

Transit 2A Rocket - Pass Details

Date: 04 October 2022
Orbit: 589 x 912 km, 66.7° (Epoch: 07 December)

Event Time Altitude Azimuth Distance (km) Brightness Sun altitude
Rises 13:24:46 0° 358° (N) 3,039 7.8 48.8°
Reaches altitude 10° 13:28:36 10° 29° (NNE) 2,200 7.1 48.4°
Maximum altitude 13:30:33 12° 52° (NE) 2,098 7.0 48.2°
Drops below altitude 10° 13:32:32 10° 75° (ENE) 2,281 7.3 48.0°
Sets 13:36:41 0° 105° (ESE) 3,293 8.2 47.5°
